Find Starlink 32028

NORAD ID: 60095 Int'l Des: 2024-117 Owner: SPXS Country: US Constellation: starlink operational
LEOCIRCULAR

現在のビュー

3D地球を読み込み中...

About Starlink 32028

Starlink 32028 (NORAD 60095) is a starlink constellation satellite (v2 mini) launched Jun 23, 2024 by SPXS of US. It operates in LEO, CIRCULAR orbit with a mass of 730.00 kg.

Starlink 32028について

説明を読み込み中...

次回通過

Passes for default location (London). Set your location on the main map for personalized predictions.

高度履歴

Loading altitude history...

軌道要素

1 60095U 24117E 26170.69490938 -.00000298 00000-0 20530-5 0 9994
2 60095 53.1606 283.3428 0001079 93.2049 266.9076 15.30197646112504
Epoch: Jun 19, 2026 • Age: 35 hours

現在のステータス

高度 476.1 km
速度 7.63 km/s
衛星直下点 26.31°N, 20.73°W
打ち上げ日 Jun 23, 2024
運用期間 1.9 years
タイプ internet

技術仕様

分類 Payload
質量 730.00 kg
乾燥質量 700.00 kg
総質量 730.00 kg
長さ 0.30 m
直径 4.10 m
スパン 29.00 m
形状 Box + pan
製造者 SPXS
バスタイプ Starlink V2M
フェーズステータス In Orbit
所有者/国 SPXS/US

Most Searched